STARLINK-35814

Last updated on Wed Dec 31 2025 00:02:06 GMT+0000 (Coordinated Universal Time)

1 66576U 25268V 25364.58335648 .00051685 00000+0 18763-2 0 9996 2 66576 43.0004 17.4390 0001064 274.7151 302.5764 15.27549694 5975
UTC large
Height (km)
Speed (km/s)
/
Latitude / Longitude
Inclination (degrees)
Orbital Period (minutes)
Azimuth
Elevation
Range (km)
Doppler Factor

Next 0 passes for location: London (51.5072 / 0.1276)

Sorry there are no passes over London.